Temp
8 8 8 7 7 7 7 7 6 6 6 6 6 6 6 6 6 5 5 5 5 5 4 4 5 4 4 4 3 3 3 2 2 2 2 2 2 2 2 2 2 2 3
8 8 7 7 7 7 7 6 6 6 6 6 6 6 6 6 6 5 5 5 5 5 5 5 5 4 4 4 3 3 3 3 2 2 2 2 2 2 2 2 2 2 2
8 8 7 7 7 7 7 6 6 6 6 6 6 6 6 6 6 5 5 5 5 5 5 5 5 4 4 4 4 3 3 2 2 2 2 2 1 1 1 1 1 2 1
7 7 7 7 7 7 6 6 6 6 6 6 6 6 6 6 6 5 5 4 4 5 4 4 4 4 4 3 3 3 3 3 2 2 2 2 2 1 1 1 1 1 1
7 7 7 7 6 6 6 6 6 6 6 6 6 6 6 6 6 5 5 4 4 5 4 4 4 4 3 3 3 2 2 2 2 2 2 2 1 1 1 1 0 0 0
7 7 7 6 6 6 6 6 6 6 6 6 6 6 6 6 6 5 5 5 5 4 4 4 4 3 3 3 2 2 2 2 2 2 2 1 1 1 1 0 0 0 0
6 6 6 6 6 6 6 6 6 6 6 6 6 6 6 6 6 6 5 5 4 4 4 4 4 3 2 2 2 2 2 2 2 2 2 1 1 1 1 1 0 -0 0
6 6 6 6 6 6 6 6 6 6 6 6 6 6 6 6 6 6 5 5 4 4 4 3 3 3 2 2 2 2 2 2 2 2 2 2 1 1 1 0 0 0 -1
5 5 5 6 6 6 6 5 5 5 6 5 5 5 5 6 6 6 5 4 4 3 3 2 3 2 1 1 1 2 2 2 2 2 1 2 1 1 1 0 -0 0 -0
5 5 5 5 5 5 5 5 5 5 5 5 5 5 5 5 5 5 4 4 3 3 3 3 3 3 3 2 2 1 2 2 1 1 1 1 1 0 1 1 0 -0 -0
4 3 3 4 4 4 4 4 4 4 5 5 5 5 5 5 4 4 4 3 3 3 3 3 3 2 2 2 2 2 2 2 1 1 1 1 1 0 0 0 -0 -0 -0
3 3 2 3 4 3 3 3 4 4 4 5 5 5 5 4 4 4 4 3 2 3 2 2 2 1 -0 0 1 1 1 1 1 1 1 1 0 0 0 0 0 -0 0
2 2 2 2 2 2 2 3 4 4 4 5 5 5 4 4 4 4 3 3 2 2 2 2 1 -1 -0 -0 0 1 1 1 1 1 1 1 1 1 1 0 0 0 0
3 2 2 3 3 3 2 3 3 4 4 4 4 4 4 4 3 3 3 3 2 2 2 0 -1 -0 0 -0 0 0 1 1 1 1 1 1 1 1 1 1 1 1 0
1 1 0 1 1 1 2 2 3 3 4 4 4 4 3 3 3 3 3 3 2 2 2 -2 -1 0 -0 0 0 1 1 1 1 1 1 1 1 1 1 1 1 1 0
0 0 -1 1 1 1 2 2 3 3 3 3 3 3 3 3 2 2 2 2 2 1 -0 1 0 -0 -0 0 0 0 0 1 1 1 1 1 1 1 1 1 1 1 1
0 -0 -1 -0 0 0 0 2 2 3 3 3 3 2 3 2 2 2 2 1 1 1 1 1 0 -0 -0 -0 -0 -0 0 0 0 1 1 1 1 1 1 1 1 1 1
0 -0 -0 0 1 0 0 1 1 2 2 2 2 2 2 2 1 1 1 1 1 0 0 0 0 -0 -0 -1 -0 -0 -0 0 1 1 0 0 1 1 1 0 0 0 0
0 0 0 0 0 1 1 1 1 2 2 2 2 2 2 1 1 1 1 0 -0 -0 0 0 0 0 -0 -0 -0 0 1 1 0 0 0 -0 0 0 -0 -0 -0 -0 -0
-0 -0 -0 -0 0 1 1 1 1 2 2 2 2 2 1 1 0 0 -0 -1 -1 -1 -0 -0 0 0 0 0 0 0 0 0 -0 -0 -0 -1 -0 -0 -0 -1 -1 -0 -0
-1 -0 -0 -0 0 0 1 1 1 2 2 2 2 1 1 0 -0 -1 -1 -1 -1 -1 -0 -0 0 0 0 0 0 0 -0 -0 -1 -1 -1 -1 -1 -1 -1 -1 -1 -1 -1
-1 -1 -0 -0 0 0 1 1 1 1 2 1 1 1 -0 -1 -1 -1 -1 -1 -1 -1 -1 -0 -0 -0 -0 -1 -1 -1 -1 -0 -1 -1 -1 -1 -1 -1 -1 -1 -1 -1 -1
-1 -0 -0 -0 0 0 1 1 1 1 1 1 0 -0 -1 -2 -2 -2 -2 -2 -1 -1 -1 -1 -1 -1 -1 -1 -1 -1 -1 -1 -1 -1 -2 -1 -2 -1 -2 -1 -1 -2 -2
-1 -1 -0 -0 -0 -0 0 1 1 1 0 -0 -1 -1 -2 -2 -2 -3 -3 -2 -2 -2 -1 -1 -1 -1 -1 -1 -1 -1 -1 -1 -2 -2 -2 -2 -2 -2 -2 -2 -2 -2 -2
-1 -1 -1 -1 -1 -0 0 0 -0 -1 -1 -2 -2 -2 -2 -3 -3 -2 -2 -2 -2 -2 -2 -2 -2 -2 -2 -2 -2 -2 -2 -2 -2 -2 -3 -3 -3 -3 -3 -3 -3 -3 -3
-1 -1 -1 -1 -1 -0 -0 -1 -2 -2 -2 -3 -3 -3 -2 -2 -3 -3 -2 -2 -2 -2 -2 -2 -2 -2 -2 -2 -2 -2 -2 -3 -3 -3 -3 -3 -3 -3 -4 -4 -4 -4 -4
Height
3193 3194 3194 3194 3194 3194 3193 3193 3192 3191 3190 3189 3188 3187 3185 3184 3182 3180 3178 3176 3174 3171 3169 3166 3164 3162 3160 3158 3156 3155 3154 3152 3150 3149 3147 3146 3145 3144 3143 3143 3142 3142 3141
3191 3191 3191 3191 3191 3191 3190 3190 3189 3188 3187 3186 3185 3184 3182 3181 3179 3177 3175 3173 3170 3168 3165 3163 3160 3157 3156 3154 3153 3151 3149 3148 3147 3146 3144 3143 3142 3141 3140 3139 3139 3138 3137
3186 3187 3188 3189 3189 3188 3187 3187 3186 3185 3184 3182 3181 3179 3178 3176 3174 3173 3170 3168 3165 3163 3161 3157 3155 3153 3151 3150 3150 3149 3147 3144 3143 3142 3141 3139 3138 3137 3136 3135 3135 3135 3134
3183 3183 3184 3185 3185 3185 3184 3183 3182 3181 3180 3178 3177 3175 3174 3172 3170 3168 3165 3162 3160 3159 3157 3154 3151 3149 3147 3146 3144 3144 3142 3140 3139 3138 3137 3136 3134 3133 3132 3131 3131 3131 3130
3179 3180 3180 3180 3181 3181 3180 3179 3179 3177 3176 3175 3173 3171 3169 3168 3166 3164 3161 3157 3155 3154 3153 3150 3148 3145 3144 3142 3140 3138 3137 3135 3134 3133 3133 3131 3130 3129 3128 3128 3127 3127 3126
3173 3175 3176 3177 3177 3177 3176 3175 3174 3173 3171 3170 3168 3166 3165 3163 3160 3159 3156 3153 3150 3149 3147 3146 3144 3141 3139 3137 3135 3133 3131 3130 3129 3128 3128 3128 3127 3125 3125 3124 3124 3123 3122
3169 3170 3172 3172 3173 3173 3172 3170 3169 3168 3167 3165 3162 3161 3159 3157 3154 3153 3151 3148 3145 3142 3140 3140 3138 3136 3134 3132 3130 3128 3127 3125 3123 3122 3122 3122 3122 3121 3120 3119 3120 3119 3117
3164 3166 3167 3167 3168 3168 3167 3166 3164 3163 3162 3160 3156 3153 3151 3153 3149 3147 3146 3143 3140 3137 3135 3134 3133 3131 3128 3127 3125 3124 3122 3120 3117 3116 3115 3114 3114 3113 3114 3114 3114 3114 3114
3159 3160 3162 3162 3162 3162 3161 3161 3160 3158 3156 3156 3152 3149 3144 3143 3142 3140 3138 3136 3133 3131 3130 3128 3127 3126 3123 3121 3119 3118 3116 3115 3112 3111 3109 3108 3108 3107 3107 3107 3109 3109 3110
3155 3155 3156 3156 3157 3157 3156 3156 3154 3152 3150 3150 3147 3145 3140 3136 3134 3133 3133 3131 3128 3125 3124 3123 3121 3119 3117 3115 3113 3111 3110 3108 3107 3106 3104 3103 3102 3102 3102 3102 3102 3104 3105
3148 3148 3148 3150 3151 3150 3150 3150 3148 3147 3144 3142 3139 3138 3136 3132 3129 3126 3124 3126 3122 3119 3117 3117 3115 3113 3111 3110 3108 3106 3105 3104 3102 3101 3100 3099 3098 3097 3097 3097 3097 3098 3099
3141 3142 3143 3144 3145 3144 3144 3143 3142 3140 3137 3135 3132 3130 3128 3126 3124 3121 3118 3118 3115 3111 3110 3109 3109 3107 3106 3105 3103 3101 3100 3099 3098 3097 3095 3094 3094 3092 3092 3092 3092 3093 3094
3133 3137 3139 3138 3137 3136 3137 3136 3135 3133 3131 3127 3124 3123 3120 3118 3116 3115 3113 3111 3108 3104 3102 3101 3101 3102 3101 3099 3098 3096 3094 3095 3093 3092 3091 3090 3089 3089 3088 3087 3087 3088 3089
3129 3131 3131 3130 3130 3129 3129 3128 3127 3125 3121 3119 3116 3113 3112 3110 3108 3107 3106 3104 3102 3100 3097 3096 3095 3095 3095 3093 3092 3091 3089 3089 3089 3088 3087 3086 3086 3085 3085 3084 3084 3085 3085
3122 3121 3121 3121 3120 3119 3120 3119 3117 3115 3112 3109 3107 3105 3103 3102 3100 3099 3098 3097 3095 3094 3091 3090 3091 3090 3089 3087 3087 3085 3085 3086 3085 3084 3083 3082 3082 3081 3081 3082 3082 3082 3082
3113 3112 3113 3113 3111 3110 3110 3109 3107 3105 3103 3100 3098 3095 3093 3092 3091 3091 3089 3089 3088 3087 3086 3084 3084 3084 3084 3082 3082 3081 3080 3081 3080 3079 3079 3078 3079 3078 3078 3078 3077 3078 3077
3106 3106 3106 3106 3104 3102 3101 3100 3097 3094 3094 3091 3089 3087 3085 3083 3082 3082 3081 3080 3080 3080 3078 3077 3076 3077 3077 3076 3076 3075 3074 3076 3075 3074 3075 3075 3074 3074 3073 3073 3073 3073 3074
3098 3099 3097 3096 3093 3092 3090 3089 3087 3085 3083 3082 3079 3078 3076 3074 3074 3073 3073 3072 3073 3072 3071 3070 3070 3070 3070 3070 3069 3069 3070 3071 3069 3070 3070 3070 3069 3069 3069 3068 3067 3067 3068
3090 3090 3089 3088 3085 3083 3081 3079 3077 3075 3073 3072 3070 3068 3066 3065 3065 3064 3064 3066 3066 3065 3065 3064 3064 3064 3064 3064 3065 3066 3067 3067 3066 3067 3066 3066 3065 3064 3064 3063 3062 3062 3062
3081 3081 3080 3078 3077 3074 3072 3070 3068 3066 3064 3063 3060 3058 3057 3056 3056 3056 3057 3057 3058 3058 3058 3059 3059 3058 3058 3059 3060 3060 3061 3061 3061 3061 3061 3060 3059 3059 3059 3058 3057 3057 3057
3073 3073 3072 3071 3068 3066 3063 3061 3059 3057 3055 3052 3050 3049 3049 3049 3048 3048 3049 3050 3052 3053 3054 3055 3056 3055 3054 3055 3056 3056 3056 3056 3056 3056 3056 3055 3054 3053 3053 3052 3051 3051 3051
3066 3065 3063 3062 3059 3057 3055 3053 3050 3048 3045 3042 3041 3040 3040 3041 3041 3042 3042 3044 3046 3048 3049 3051 3051 3052 3051 3051 3051 3051 3050 3051 3051 3050 3049 3049 3048 3048 3047 3047 3046 3046 3046
3057 3056 3055 3053 3051 3049 3046 3043 3040 3037 3035 3034 3034 3033 3033 3033 3034 3037 3038 3039 3041 3043 3044 3045 3048 3048 3047 3047 3047 3046 3046 3045 3045 3045 3044 3044 3044 3043 3042 3042 3041 3041 3040
3050 3049 3047 3044 3042 3040 3037 3035 3032 3030 3029 3028 3027 3028 3029 3029 3030 3031 3034 3036 3037 3039 3039 3041 3043 3043 3042 3042 3042 3042 3041 3040 3040 3039 3038 3038 3038 3038 3037 3036 3036 3035 3035
3042 3040 3039 3037 3035 3032 3030 3028 3026 3025 3023 3023 3023 3023 3025 3026 3028 3028 3030 3034 3034 3036 3035 3036 3038 3038 3038 3037 3037 3036 3035 3035 3034 3033 3033 3032 3032 3032 3032 3031 3030 3029 3029
3035 3033 3031 3029 3027 3025 3023 3021 3020 3019 3019 3020 3020 3021 3023 3025 3026 3027 3027 3029 3030 3031 3031 3032 3032 3033 3033 3032 3031 3030 3030 3029 3028 3027 3027 3028 3027 3026 3026 3025 3025 3023 3023
Wind_Speed
11 11 10 9 9 9 9 10 11 12 13 13 14 14 15 16 17 17 17 20 22 23 22 23 23 23 21 19 17 17 16 17 17 16 16 16 15 13 13 13 13 13 12
14 13 12 11 9 9 9 10 11 12 13 14 15 16 17 18 17 17 18 22 21 22 22 21 20 23 22 20 18 16 17 16 17 16 17 16 15 15 15 14 14 15 14
17 15 13 13 12 11 11 12 13 14 15 16 17 18 19 21 22 23 23 23 24 24 24 28 25 22 21 19 18 16 16 17 19 19 20 18 17 16 15 14 13 13 14
20 17 16 14 13 13 14 15 15 16 17 17 19 20 22 23 24 24 25 26 26 26 25 26 25 23 22 20 20 18 16 16 18 20 21 20 19 18 17 15 15 13 15
22 20 18 16 15 15 16 17 17 18 18 20 21 24 24 24 25 26 26 28 29 28 26 23 24 23 22 21 22 20 18 18 18 19 19 22 21 20 19 18 16 14 16
24 22 20 18 17 18 19 19 19 20 21 24 25 26 26 26 27 25 27 28 28 27 25 23 23 22 21 22 21 21 20 19 18 17 18 19 22 23 21 19 20 19 18
24 22 20 19 18 20 21 21 22 23 24 26 29 29 30 31 31 27 25 26 27 26 27 25 23 24 23 23 22 22 22 21 21 19 20 21 24 24 22 23 20 17 16
25 23 21 21 21 21 21 24 25 26 27 28 32 34 35 33 32 29 26 24 25 27 26 25 26 27 27 25 25 23 22 21 21 21 20 20 21 23 25 24 24 20 20
23 23 23 22 23 22 24 26 26 29 31 30 32 35 38 37 35 32 29 27 28 29 28 28 28 28 26 25 25 22 21 20 20 19 18 19 19 18 20 24 25 25 24
22 23 23 23 25 25 24 27 29 30 33 32 33 34 36 37 35 34 29 29 30 30 30 30 31 29 27 20 21 21 20 19 18 18 18 18 17 16 15 16 18 18 21
25 27 25 24 25 26 27 30 30 32 34 34 35 34 34 34 33 34 33 28 31 32 32 32 31 29 22 18 20 21 21 19 18 18 17 16 15 13 12 13 16 18 21
37 30 23 24 29 28 27 31 33 35 36 37 36 36 34 34 31 33 34 31 30 33 32 31 28 28 23 22 22 21 20 18 17 16 17 15 15 14 13 14 16 17 18
28 21 24 27 27 28 35 36 39 40 40 39 37 37 36 34 33 32 32 31 31 30 34 32 27 22 27 24 24 22 19 17 17 15 14 14 13 12 12 13 13 15 15
24 30 35 40 50 44 36 40 39 41 41 40 39 37 36 35 35 35 33 31 30 30 32 29 26 28 26 24 24 22 19 18 15 15 14 13 12 12 12 13 12 14 15
29 33 34 32 34 34 38 42 41 41 40 39 38 36 36 34 34 34 32 31 30 30 29 26 32 31 26 24 23 21 19 19 16 15 16 15 15 14 13 14 13 14 15
46 40 36 37 35 35 35 38 36 36 38 36 36 35 34 33 32 32 31 30 29 28 31 28 30 27 25 22 22 20 18 18 15 15 14 13 14 13 14 14 14 14 14
34 33 39 37 43 43 41 42 38 36 41 38 36 34 33 32 32 30 30 29 28 28 28 29 25 24 23 21 20 18 15 16 16 13 12 14 14 14 14 14 13 13 14
34 38 36 36 37 41 42 40 39 42 40 38 37 34 33 32 30 29 28 28 28 27 28 26 23 22 21 19 16 15 15 14 12 12 13 15 14 15 16 14 14 15 15
36 37 38 42 42 40 40 40 41 40 40 37 38 35 33 32 30 28 28 28 27 25 25 22 22 19 15 14 12 11 13 13 13 14 15 15 14 15 17 16 16 16 17
36 38 39 37 36 36 38 38 38 39 37 36 36 35 33 31 29 28 27 26 24 21 20 18 15 13 12 12 13 14 15 15 16 16 16 16 15 15 17 17 16 15 15
31 32 33 34 34 34 34 34 35 35 35 34 33 31 32 30 28 26 24 22 20 19 16 14 13 12 12 14 15 17 16 17 18 17 17 17 16 15 16 16 15 15 15
28 29 30 31 31 32 32 33 32 33 33 31 31 29 27 25 25 23 20 19 19 18 15 15 14 14 15 16 17 18 17 19 19 18 17 16 16 15 15 14 14 15 15
26 27 29 30 31 32 32 32 32 31 30 27 27 25 23 21 20 19 18 18 17 16 15 14 15 15 16 16 18 18 18 19 19 19 17 16 15 16 15 15 15 16 16
26 29 30 30 31 32 32 32 31 28 26 23 19 18 19 19 18 17 17 16 15 14 14 15 15 15 15 15 16 17 18 19 19 18 17 17 16 16 17 16 17 17 17
28 28 29 29 30 30 30 29 26 23 19 16 14 13 13 13 13 12 12 14 14 14 14 14 14 13 14 15 16 17 18 18 18 18 17 18 17 17 18 18 18 19 19
27 26 27 27 28 28 26 24 21 17 15 14 12 11 11 11 11 12 11 13 14 14 13 13 12 13 14 15 16 16 17 17 17 18 18 19 19 19 20 20 19 20 20
Wind_Direction
259 262 264 265 278 292 301 301 301 299 295 295 297 301 304 306 310 313 312 318 316 317 316 316 316 315 312 311 306 304 304 301 304 302 303 303 303 300 300 298 295 290 288
259 259 258 263 272 289 295 296 295 297 299 301 303 304 306 307 309 311 302 310 313 313 314 315 315 312 312 312 306 303 298 297 298 299 301 300 299 298 301 299 292 286 285
256 255 251 254 269 281 290 294 296 301 304 304 304 306 310 311 312 312 312 314 314 316 319 322 319 312 313 312 309 306 296 293 292 294 295 298 297 296 295 296 294 290 282
252 249 245 250 266 281 293 299 302 303 304 306 308 306 305 309 311 312 309 309 307 309 311 313 310 313 314 312 309 309 295 279 279 285 290 291 292 293 293 292 289 286 284
245 244 242 248 263 280 290 296 298 299 302 304 305 307 309 310 309 308 305 300 302 306 307 306 304 310 310 309 308 304 298 288 276 274 277 284 286 289 291 292 289 285 285
241 235 238 251 268 283 291 295 298 301 304 308 308 307 309 309 309 311 300 299 300 303 302 298 305 308 306 306 304 300 299 292 285 275 267 270 281 287 285 284 288 287 282
235 235 240 253 268 283 290 297 300 301 305 307 306 308 307 309 310 311 302 299 300 299 298 303 310 307 305 301 297 297 301 299 292 285 277 268 263 263 270 280 276 284 282
233 236 246 256 268 279 287 291 295 299 304 307 306 306 307 306 305 305 303 302 296 298 302 307 305 304 300 298 298 301 298 295 292 288 284 278 268 263 258 258 269 266 272
237 243 251 261 271 277 285 289 294 299 301 302 302 303 305 305 306 306 304 304 302 304 303 300 300 301 292 289 292 296 299 298 294 292 290 285 277 270 262 256 253 258 270
245 250 256 264 270 275 283 286 292 295 296 297 297 298 299 300 301 299 300 299 298 297 296 296 297 295 296 284 291 298 298 297 292 293 292 286 281 275 270 265 259 250 255
250 256 256 269 277 282 287 291 294 294 295 296 296 296 296 295 295 295 293 291 291 292 293 295 296 297 303 304 299 297 298 297 294 294 293 289 286 283 276 262 260 256 249
253 255 266 278 279 281 289 293 294 294 293 293 295 294 292 291 291 289 290 291 286 289 289 288 290 296 295 305 295 293 293 289 291 293 293 293 288 284 278 272 266 257 251
258 265 274 273 272 278 290 286 288 289 290 291 290 290 290 290 287 285 283 285 285 286 285 288 287 284 292 297 293 292 291 285 286 285 288 291 291 284 279 278 270 255 257
259 276 282 279 271 277 282 280 284 287 289 288 287 286 286 286 286 285 285 282 279 278 281 283 288 282 290 288 287 288 285 282 278 282 285 285 285 281 279 275 271 264 263
267 272 271 274 277 272 272 279 284 287 288 287 285 285 285 284 283 282 281 279 276 275 273 281 269 284 285 285 285 283 283 283 277 282 282 281 281 283 282 282 278 273 266
278 277 267 264 265 271 279 280 286 289 286 287 287 286 286 285 283 281 280 276 273 272 264 272 272 278 281 281 280 279 281 277 275 277 279 280 282 285 286 285 286 284 275
267 267 267 275 274 286 277 276 286 290 290 287 286 284 283 281 279 277 274 273 270 268 268 270 274 276 276 277 275 276 273 271 275 275 277 281 283 282 280 281 281 280 280
279 273 275 283 287 286 283 280 271 279 286 285 284 282 280 278 275 273 272 269 267 266 268 268 269 268 269 268 270 270 270 267 271 277 277 277 279 279 276 274 275 277 278
273 275 278 284 283 284 285 285 283 283 284 284 282 280 277 275 272 271 269 268 267 267 265 266 270 265 257 259 265 269 271 275 280 280 278 276 276 277 276 276 274 275 278
273 277 280 283 286 287 286 286 284 283 282 282 281 278 276 272 269 267 265 264 261 256 258 261 252 245 250 258 264 267 269 274 274 274 275 276 276 276 274 272 271 272 271
271 276 281 284 286 286 286 286 284 283 283 281 278 276 273 271 265 263 262 257 251 250 243 246 249 251 259 264 270 273 276 275 275 275 276 276 275 275 274 272 275 274 273
276 280 284 287 289 289 288 286 285 285 284 283 278 270 264 262 260 255 246 243 241 236 237 243 252 260 263 268 271 273 276 277 274 275 275 275 277 275 272 273 274 273 274
278 283 286 288 290 291 291 291 290 287 285 281 276 269 260 251 246 245 240 238 231 229 236 247 259 264 269 272 273 274 277 277 276 276 277 278 276 275 273 273 272 274 275
279 285 288 290 290 291 293 292 289 285 280 274 267 262 257 249 244 240 236 230 230 237 246 254 260 265 268 270 275 279 281 281 278 277 277 275 274 273 273 274 275 274 275
283 286 288 289 289 290 290 288 285 279 272 265 260 253 244 236 229 223 228 242 243 245 251 255 258 265 269 275 280 281 279 277 276 276 275 274 272 272 273 274 276 279 281
280 285 287 289 290 289 287 283 277 268 261 247 234 236 234 233 235 239 235 245 255 256 254 256 261 266 272 278 279 280 277 274 274 275 275 275 275 276 278 279 281 283 284